Location: *
(51.8167°N, 12.5000°E)
Time: 02:26:54
(UTC+00:00)

Cosmos 1295 Rocket - Pass Details

Date: 16 September 2019
Orbit: 943 x 995 km, 82.9° (Epoch: 18 October)

Event Time Altitude Azimuth Distance (km) Brightness Sun altitude
Rises 18:50:42 0° 349° (N) 3,686 8.0 -13.9°
Reaches altitude 10° 18:53:14 10° 350° (N) 2,727 7.3 -14.3°
Maximum altitude 18:59:29 89° 265° (W) 969 4.5 -15.2°
Drops below altitude 10° 19:05:37 10° 173° (S) 2,674 6.5 -16.0°
Enters shadow 19:07:24 - 173° (S) 3,351 7.0 -16.3°
